Location: Aalen
(48.8330°N, 10.1000°E)
Time: 18:11:50
(UTC+01:00)

UWE-3 - Pass Details

Date: 10 October 2025
Orbit: 548 x 618 km, 97.8° (Epoch: 12 November)

Event Time Altitude Azimuth Distance (km) Brightness Sun altitude
Rises 04:25:51 0° 10° (N) 2,748 ? -30.6°
Reaches altitude 10° 04:27:59 10° 6° (N) 1,856 ? -30.3°
Enters shadow 04:28:38 14° 4° (N) 1,595 ? -30.2°
